"Pseudo-MPEC" for A10c52C

Created 2019 Feb 13 4:18:11 UT using Find_Orb

Click here for an explanation of pseudo-MPECs

 
 Astrometry: 
     A10c52C  C2019 02 09oQN!;58@C(4S0GE\M?iAstrometry6y3QDH0VUpk$!t%/q=):E=HT08
     A10c52C  C2019 02 095(e3/$D@Y:1];+Xn4OxNNov]ZC)0?cuuv_@%3Z6KPvgbD!7B*elZT08
     A10c52C  C2019 02 09%pcTFHTAMBUm+nZm86^5@I'T-XfnFEdye2.,:Predacted;;2CGZT08
     A10c52C  C2019 02 093VBh\*Hx!mqeG\QUBE_]1(^k_SrS,3@bVby:=G8o/]pEhKAhdYSlT08
     A10c52C  C2019 02 12.30902 11 20 18.60 -25 51 17.6    ~2CBX 18.7 GVNEOCP703
     A10c52C  C2019 02 12.31438 11 20 12.69 -25 50 15.6    ~2CBX 18.5 GVNEOCP703
     A10c52C  C2019 02 12.31973 11 20 06.81 -25 49 17.5    ~2CBX 18.6 GVNEOCP703
     A10c52C  C2019 02 12.32508 11 20 00.82 -25 48 16.3    ~2CBX 18.7 GVNEOCP703
     A10c52C  C2019 02 12.39692 11 18 41.78 -25 34 44.2    ~2CBX 18.3 GVNEOCPI52
     A10c52C  C2019 02 12.39722 11 18 41.45 -25 34 40.5    ~2CBX 18.3 GVNEOCPI52
     A10c52C  C2019 02 12.39767 11 18 40.98 -25 34 36.5    ~2CBX 18.5 GVNEOCPI52
     A10c52C  C2019 02 12.39797 11 18 40.64 -25 34 32.3    ~2CBX 18.1 GVNEOCPI52
     A10c52C KC2019 02 120*Ys:urT8sG0B0m806=QX'd1M60Y`'qq2click*Dp[C(Of8vXHfv474
     A10c52C KC2019 02 12.@IHit4t:ThOr1W!QpR0r,L==yMH-mfVoVP)*Hx^6M0+2SUc'6I.474
     A10c52C KC2019 02 12N0KC@U'JX%bnRrJ7^$FA(9E6F2w'UkUepx+%/^^q,kDW(([)_V1R474
     A10c52C KC2019 02 12Ci4b:gn@FW$_)0PMg2/oHY4'-YfEhereIU-cvU)v3a[q1C_xR;mU474
     A10c52C KC2019 02 13ei)0l8q/4'l0nSldJW-cU9%InSwX,t'O#7A;cP)DB:8u`=ccMVBvL01
     A10c52C KC2019 02 13W@c51**N54rW(0-hf-+)forJX:m.?i5V[Ig!fgJa;_u4qWxXE?e*L01
     A10c52C KC2019 02 135%;E;3*i].PyH%gs\?Q[^pf;_)1v.GU#FpAYg%IJhS#6Yj/o0`QHL01
     A10c52C KC2019 02 13kbv!fBqa8A%c/X@Ek1.aAnli$cSs=(?Y$@yFka^\'!k:A6+RxFMlL01
     A10c52C KC2019 02 13r,,06+0\F3@(nuM.=no;:Ba-91b=/5I%uexplanation3pD,'1c%L01

Station data:
(474) Mount John Observatory, Lake Tekapo  (S43.987388 E170.464960)  New
   Zealand.  Observers A. C. Gilmore, P. M. Kilmartin. Measurer P. M.
   Kilmartin. 1.0-m f/7.7 reflector + CCD.
(703) Catalina Sky Survey  (N32.417006 W110.732640)  US/Arizona.  Observers
   B. M. Africano, E. J. Christensen, G. A. Farneth, D. C. Fuls, A. R. Gibbs,
   A. D. Grauer, H. Groeller, J. A. Johnson, R. A. Kowalski, S. M. Larson, G.
   J. Leonard, R. L. Seaman, F. C. Shelly. 0.68 m Schmidt + 10K CCD.
(I52) Steward Observatory, Mt. Lemmon Station  (N32.442547 W110.788920)
   US/Arizona.  Observers B. M. Africano, E. J. Christensen, G. A. Farneth,
   D. C. Fuls, A. R. Gibbs, A. D. Grauer, H. Groeller, J. A. Johnson, R. A.
   Kowalski, S. M. Larson, G. J. Leonard, R. L. Seaman, F. C. Shelly. 1.0-m
   reflector + CCD.
(L01) Višnjan Observatory, Tičan  (N45.290900 E13.749300)  Croatia.
   Observers K. Korlević, E. Pettarin. Measurer E. Pettarin. 1.0-m f/2.9
   reflector + CCD.
(T08) ATLAS-MLO, Mauna Loa  (N19.535772 W155.576400)  US/Hawaii.

Orbital elements:  A10c52C
   Perihelion 2018 Dec 19.696512 +/- 0.081 TT = 16:42:58 (JD 2458472.196512)
Epoch 2019 Feb 13.0 TT = JDT 2458527.5   Earth MOID: 0.0124   Ve: 0.0187
M  29.23396214 +/- 0.21             Ma: 0.0426                AutoNEOCP
n   0.52860973 +/- 0.00302          Peri.   98.19236 +/- 0.018
a   1.51488365 +/- 0.00577          Node   299.50093 +/- 0.007
e   0.6709744 +/- 0.00194           Incl.    5.43403 +/- 0.015
P   1.86/681.02d           H 22.3   G  0.15   U  8.8  
q 0.49843537 +/- 0.00104    Q 2.53133192 +/- 0.0125
From 21 observations 2019 Feb. 9-13; mean residual 0".48
Residuals in arcseconds: 
190209 T08  .21+  1.4+    190212 703  .26-  .16+    190212 474  .05+  .03+    
190209 T08  .31+  .48-    190212 I52  .20-  .19-    190212 474  .73+  .29-    
190209 T08  .50-  .18-    190212 I52  .23-  .12+    190213 L01  .16+  .01-    
190209 T08  .06-  .81-    190212 I52  .07+  .97-    190213 L01  .33-  .09-    
190212 703  .34-  .37+    190212 I52  .10-  .17-    190213 L01  .34-  .08+    
190212 703  .06+  1.8+    190212 474  .26-  .01-    190213 L01  .02+  .18+    
190212 703  .67+  .57-    190212 474  .30+  .12-    190213 L01  .02-  .23-    

Ephemerides (geocentric):
Date (UTC) HH   RA              Dec         delta   r     elong  mag " sig PA
---- -- -- --  -------------   -----------  ------ ------ -----  --- ---- ---
2019 02 13 04  11 06 07.195   -23 14 22.65  .10336 1.0665 138.2 19.0 .164 167
2019 02 13 05  11 05 29.470   -23 07 10.92  .10369 1.0670 138.4 19.0 .163 167
2019 02 13 06  11 04 52.045   -23 00 01.25  .10402 1.0675 138.6 19.0 .163 167
2019 02 13 07  11 04 14.919   -22 52 53.64  .10435 1.0680 138.8 19.0 .163 167
2019 02 13 08  11 03 38.087   -22 45 48.08  .10468 1.0685 139.0 19.0 .163 167
2019 02 13 09  11 03 01.548   -22 38 44.58  .10501 1.0690 139.2 19.0 .162 167
2019 02 13 10  11 02 25.298   -22 31 43.13  .10535 1.0695 139.4 19.0 .162 167
2019 02 13 11  11 01 49.334   -22 24 43.73  .10568 1.0700 139.6 19.0 .162 167
2019 02 13 12  11 01 13.653   -22 17 46.38  .10602 1.0705 139.8 19.0 .162 167
2019 02 13 13  11 00 38.253   -22 10 51.07  .10636 1.0710 140.0 19.1 .162 167
2019 02 13 14  11 00 03.131   -22 03 57.80  .10670 1.0715 140.2 19.1 .162 167
2019 02 13 15  10 59 28.283   -21 57 06.57  .10704 1.0720 140.4 19.1 .162 167
2019 02 13 16  10 58 53.708   -21 50 17.37  .10738 1.0725 140.6 19.1 .162 167
2019 02 13 17  10 58 19.402   -21 43 30.19  .10772 1.0730 140.8 19.1 .162 167
2019 02 13 18  10 57 45.363   -21 36 45.05  .10807 1.0734 141.0 19.1 .162 167
2019 02 13 19  10 57 11.588   -21 30 01.92  .10841 1.0739 141.2 19.1 .163 167
2019 02 13 20  10 56 38.074   -21 23 20.80  .10876 1.0744 141.3 19.1 .163 167
2019 02 13 21  10 56 04.819   -21 16 41.70  .10910 1.0749 141.5 19.1 .163 167
2019 02 13 22  10 55 31.821   -21 10 04.60  .10945 1.0754 141.7 19.1 .163 167
2019 02 13 23  10 54 59.076   -21 03 29.50  .10980 1.0759 141.9 19.1 .164 167
2019 02 14 00  10 54 26.582   -20 56 56.39  .11015 1.0764 142.1 19.1 .164 167
2019 02 14 01  10 53 54.337   -20 50 25.27  .11050 1.0769 142.3 19.1 .165 167
2019 02 14 02  10 53 22.338   -20 43 56.13  .11085 1.0774 142.5 19.1 .165 167
2019 02 14 03  10 52 50.583   -20 37 28.96  .11120 1.0779 142.6 19.1 .165 167
2019 02 14 04  10 52 19.069   -20 31 03.77  .11155 1.0784 142.8 19.1 .166 167
2019 02 14 05  10 51 47.794   -20 24 40.54  .11191 1.0789 143.0 19.1 .167 167
2019 02 14 06  10 51 16.756   -20 18 19.26  .11226 1.0794 143.2 19.1 .167 167
2019 02 14 07  10 50 45.952   -20 11 59.93  .11262 1.0799 143.4 19.1 .168 167
2019 02 14 08  10 50 15.380   -20 05 42.55  .11298 1.0804 143.5 19.1 .168 167
2019 02 14 09  10 49 45.037   -19 59 27.10  .11334 1.0809 143.7 19.1 .169 167
2019 02 14 10  10 49 14.922   -19 53 13.58  .11369 1.0814 143.9 19.1 .170 167
2019 02 14 11  10 48 45.033   -19 47 01.97  .11405 1.0819 144.0 19.1 .171 167
2019 02 14 12  10 48 15.366   -19 40 52.29  .11441 1.0824 144.2 19.1 .171 167
2019 02 14 13  10 47 45.920   -19 34 44.50  .11478 1.0829 144.4 19.1 .172 167
2019 02 14 14  10 47 16.692   -19 28 38.62  .11514 1.0834 144.6 19.1 .173 167
2019 02 14 15  10 46 47.681   -19 22 34.63  .11550 1.0839 144.7 19.1 .174 167
2019 02 14 16  10 46 18.884   -19 16 32.51  .11587 1.0844 144.9 19.1 .175 167
2019 02 14 17  10 45 50.300   -19 10 32.28  .11623 1.0848 145.1 19.1 .176 167
2019 02 14 18  10 45 21.925   -19 04 33.91  .11660 1.0853 145.2 19.1 .177 167
2019 02 14 19  10 44 53.759   -18 58 37.40  .11696 1.0858 145.4 19.1 .178 167
2019 02 14 20  10 44 25.799   -18 52 42.73  .11733 1.0863 145.5 19.1 .179 167
2019 02 14 21  10 43 58.044   -18 46 49.91  .11770 1.0868 145.7 19.1 .180 167
2019 02 14 22  10 43 30.490   -18 40 58.93  .11807 1.0873 145.9 19.2 .182 167
2019 02 14 23  10 43 03.136   -18 35 09.77  .11844 1.0878 146.0 19.2 .183 168
2019 02 15 00  10 42 35.981   -18 29 22.43  .11881 1.0883 146.2 19.2 .184 168
2019 02 15 01  10 42 09.023   -18 23 36.89  .11918 1.0888 146.3 19.2 .185 168
2019 02 15 02  10 41 42.258   -18 17 53.16  .11955 1.0893 146.5 19.2 .187 168
2019 02 15 03  10 41 15.687   -18 12 11.21  .11993 1.0898 146.7 19.2 .188 168